Showing default

FLOCK 4BE 26, 60484

Orbit data source: Space-Track

FLOCK 4BE 26, 60484 is a payload satellite owned by Planet (US) in SSO that was launched on Fri, 16 Aug 2024 UTC via an FALCON 9 launch vehicle from the Air Force Western Test Range (AFWTR). Payload-class satellites include a variety of spacecraft equipped with specific instruments for various scientific and technological missions. These include communications satellites like Starlink; space stations such as the ISS; scientific satellites like the Hubble; Earth observation satellites from companies like Planet Labs, Umbra, and HawkEye 360; GPS; miniature CubeSats for education and research; and military/defense satellites.

Loading next visibility...
Identifier
60484, 2024-149S
Orbit
SSO
Country
Flag of USUS
Related business
Manufacturer
Planet
Mission
Operational Commercial Imaging
Bus & Motor
CUBESAT 3U, Unknown motor
Mass
5.7 kg wet, 5.7 kg dry
Launch date (UTC)
2024-08-16 (1 year ago)
Launch vehicle
FALCON 9
Launch site
Air Force Western Test Range (AFWTR)
Object type
Payload
Rocket body
Debris
Shape & HBR
Box + 2 Pan, 1.0 m
Radar Cross Section
0.072 m², Medium (>0.1 m² and < 1m²)

Expand to show TLE details & history
Last TLE update: 13 hours ago

TLE from 13 hours ago
0 FLOCK 4BE 26
1 60484U 24149S   26036.16306624  .00091376  00000-0  23791-2 0  9997
2 60484  97.3824 118.6790 0004646 359.4924   0.6316 15.38526981 81985
Epoch: 2026-02-05T03:54Z
TLE epoch observation values (Epoch: 2026-02-05T03:54:48.923Z)
Latitude
0.00003°
Longitude
-75.34409°
Altitude
450.407 km
Speed
7.644 km/s
True Right ascension
07h 54m 42s
True Declination
0° 00' 00"
Sunlit
Object was in full shadow at epoch
Visualization orbit readout
Latitude
Unknown
Longitude
Unknown
Altitude
Unknown
Speed
Unknown
Apparent Right ascension
Unknown
Apparent Declination
Unknown
Sunlit
N/A
Visualization observer readout
Local Sidereal Time
18:28:32
Azimuth
Unknown
Elevation
Unknown
Doppler factor
Unknown
Orbital elements
Apogee altitude
450.576 km
Perigee altitude
444.233 km
Semi-major axis
6,825.542 km
Eccentricity
0.00046
Inclination
97.3824°
RAAN
118.679°
Arg. of periapsis
359.4924°
True anomaly
0.63219°
Mean anomaly
0.6316°
Eccentric anomaly
0.63189°
Mean motion
3.84891 °/min
Orbital period
93.53 mins
BSTAR
0.0023791
Loading maneuver chart data...
Computing Atmospheric mass density...
Loading historical data...
Loading historical data...
Loading historical data...
Loading historical data...
Loading historical data...
Loading historical data...
Loading historical data...

Documentation

Showing up to 5 results
|